This demonstration page uses our WeatherBlox Daily Observations layout. Learn more.

Left ArrowRight Arrow

Hourly Observations for November 21, 2019

Temp ( °F °C ) Dew Point ( °F °C ) Humidity (%) Winds ( mph kmh ) Pressure ( in mb ) Visibility ( mi km ) Precip ( " mm )
12:53 am 00:53 Clear 57 13.9 28 -2.2 33 33 N 14 22 29.76 1008 10 16 0.00 0.00
1:53 am 01:53 Clear 56 13.3 28 -2.2 34 34 N 13 20 29.77 1008 10 16 0.00 0.00
2:53 am 02:53 Clear 56 13.3 28 -2.2 34 34 N 10 17 29.77 1008 10 16 0.00 0.00
3:53 am 03:53 Clear 55 12.8 28 -2.2 35 35 N 8 13 29.78 1008 10 16 0.00 0.00
4:53 am 04:53 Clear 53 11.7 28 -2.2 38 38 NW 5 7 29.80 1009 10 16 0.00 0.00
5:53 am 05:53 Clear 53 11.7 28 -2.2 38 38 N 7 11 29.81 1009 10 16 0.00 0.00
6:53 am 06:53 Clear 50 10 28 -2.2 43 43 N 8 13 29.83 1010 10 16 0.00 0.00
7:53 am 07:53 Sunny 54 12.2 28 -2.2 37 37 N 10 17 29.84 1010 10 16 0.00 0.00
8:53 am 08:53 Sunny 57 13.9 29 -1.7 34 34 N 9 15 29.85 1011 10 16 0.00 0.00
9:53 am 09:53 Sunny 60 15.6 29 -1.7 31 31 NNW 12 19 29.85 1011 10 16 0.00 0.00
10:53 am 10:53 Sunny 63 17.2 29 -1.7 28 28 NNE 9 15 29.85 1011 10 16 0.00 0.00
11:53 am 11:53 Sunny 65 18.3 29 -1.7 26 26 N 3 6 29.84 1011 10 16 0.00 0.00
12:53 pm 12:53 Sunny 65 18.3 29 -1.7 26 26 S 6 9 29.83 1010 10 16 0.00 0.00
1:53 pm 13:53 Sunny 67 19.4 29 -1.7 24 24 Calm 29.83 1010 10 16 0.00 0.00
2:53 pm 14:53 Sunny 67 19.4 29 -1.7 24 24 SW 5 7 29.85 1011 10 16 0.00 0.00
3:53 pm 15:53 Sunny 66 18.9 30 -1.1 26 26 SSE 5 7 29.86 1011 10 16 0.00 0.00
4:53 pm 16:53 Clear 60 15.6 34 1.1 38 38 S 7 11 29.89 1012 10 16 0.00 0.00
5:53 pm 17:53 Clear 57 13.9 34 1.1 42 42 S 6 9 29.91 1013 10 16 0.00 0.00
6:53 pm 18:53 Clear 53 11.7 33 0.6 47 47 Calm 29.94 1014 10 16 0.00 0.00
7:53 pm 19:53 Clear 50 10 32 0 50 50 ENE 5 7 29.97 1015 10 16 0.00 0.00
8:53 pm 20:53 Clear 47 8.3 32 0 56 56 NNE 3 6 30.01 1016 10 16 0.00 0.00
9:53 pm 21:53 Clear 46 7.8 33 0.6 61 61 Calm 30.03 1017 10 16 0.00 0.00
10:53 pm 22:53 Clear 44 6.7 32 0 63 63 NW 3 6 30.06 1018 10 16 0.00 0.00
11:53 pm 23:53 Clear 41 5 31 -0.6 67 67 WNW 5 7 30.07 1018 10 16 0.00 0.00

Powered by AerisWeather